Total_Precipitation_Accumulation
0.00 0.00 0.03 0.08 0.08 0.06 0.07 0.05 0.12 0.04 0.10 0.23 0.50 0.57 0.15 0.01 0.00 0.00 0.00 0.00 0.01 0.02 0.02 0.02 0.06 0.10 0.09 0.12 0.17 0.25 0.24 0.22 0.21 0.29 0.23 0.19 0.13 0.14 0.16 0.18 0.25 0.21 0.21 0.12
0.00 0.00 0.00 0.01 0.01 0.11 0.12 0.06 0.06 0.05 0.12 0.18 0.36 0.44 0.27 0.16 0.03 0.00 0.00 0.00 0.00 0.00 0.01 0.01 0.01 0.01 0.02 0.04 0.08 0.08 0.07 0.15 0.17 0.13 0.16 0.18 0.16 0.19 0.16 0.13 0.16 0.20 0.23 0.24
0.06 0.00 0.00 0.00 0.00 0.03 0.10 0.13 0.22 0.22 0.07 0.11 0.16 0.35 0.18 0.21 0.14 0.06 0.01 0.00 0.00 0.00 0.00 0.01 0.01 0.00 0.01 0.01 0.01 0.02 0.05 0.05 0.06 0.07 0.09 0.09 0.16 0.14 0.13 0.16 0.20 0.16 0.23 0.32
0.13 0.05 0.07 0.02 0.00 0.00 0.02 0.06 0.08 0.12 0.14 0.18 0.06 0.12 0.21 0.05 0.17 0.11 0.04 0.01 0.00 0.00 0.00 0.00 0.00 0.00 0.00 0.00 0.00 0.01 0.03 0.04 0.04 0.05 0.06 0.09 0.10 0.10 0.13 0.18 0.25 0.28 0.31 0.28
0.19 0.17 0.08 0.01 0.00 0.00 0.03 0.04 0.04 0.06 0.10 0.09 0.08 0.04 0.10 0.02 0.03 0.06 0.03 0.01 0.00 0.00 0.00 0.00 0.00 0.00 0.00 0.00 0.01 0.01 0.02 0.02 0.04 0.06 0.06 0.06 0.09 0.14 0.24 0.30 0.30 0.26 0.19 0.18
0.23 0.21 0.12 0.02 0.00 0.00 0.01 0.06 0.01 0.01 0.06 0.10 0.01 0.01 0.05 0.06 0.06 0.04 0.01 0.00 0.00 0.00 0.00 0.00 0.00 0.00 0.01 0.01 0.01 0.01 0.01 0.01 0.02 0.03 0.05 0.10 0.21 0.24 0.20 0.15 0.11 0.12 0.13 0.13
0.23 0.23 0.07 0.01 0.01 0.01 0.08 0.15 0.01 0.00 0.01 0.03 0.01 0.00 0.00 0.01 0.02 0.02 0.00 0.00 0.00 0.00 0.00 0.00 0.00 0.00 0.00 0.00 0.00 0.00 0.01 0.02 0.06 0.10 0.17 0.20 0.15 0.09 0.06 0.06 0.06 0.07 0.08 0.08
0.27 0.25 0.07 0.02 0.06 0.14 0.19 0.05 0.02 0.01 0.01 0.01 0.02 0.00 0.00 0.00 0.00 0.00 0.00 0.00 0.00 0.00 0.00 0.00 0.00 0.00 0.01 0.00 0.01 0.02 0.06 0.11 0.17 0.21 0.19 0.13 0.09 0.09 0.09 0.07 0.08 0.09 0.09 0.11
0.11 0.07 0.08 0.09 0.11 0.10 0.04 0.11 0.07 0.19 0.14 0.10 0.10 0.08 0.03 0.01 0.00 0.00 0.00 0.00 0.00 0.00 0.00 0.00 0.00 0.00 0.01 0.04 0.07 0.09 0.12 0.15 0.17 0.13 0.07 0.05 0.08 0.11 0.12 0.11 0.13 0.15 0.17 0.21
0.24 0.16 0.13 0.24 0.22 0.04 0.01 0.02 0.02 0.05 0.20 0.12 0.11 0.06 0.03 0.02 0.01 0.01 0.01 0.01 0.00 0.00 0.00 0.02 0.04 0.05 0.07 0.09 0.07 0.06 0.06 0.10 0.07 0.06 0.09 0.05 0.09 0.11 0.11 0.12 0.16 0.21 0.29 0.35
0.37 0.36 0.25 0.33 0.61 0.33 0.11 0.05 0.04 0.02 0.03 0.02 0.03 0.03 0.05 0.07 0.07 0.06 0.06 0.06 0.04 0.04 0.07 0.08 0.07 0.08 0.08 0.09 0.10 0.13 0.11 0.11 0.11 0.11 0.12 0.11 0.14 0.23 0.20 0.31 0.40 0.41 0.47 0.50
0.48 0.74 0.79 0.76 0.37 0.32 0.42 0.23 0.07 0.04 0.04 0.08 0.12 0.07 0.05 0.06 0.08 0.15 0.22 0.21 0.18 0.17 0.13 0.13 0.15 0.19 0.19 0.18 0.17 0.17 0.16 0.18 0.22 0.17 0.18 0.18 0.18 0.27 0.46 0.52 0.51 0.58 0.65 0.67
0.62 0.63 0.73 0.60 0.26 0.11 0.07 0.14 0.14 0.07 0.05 0.04 0.03 0.02 0.03 0.08 0.13 0.20 0.23 0.29 0.36 0.35 0.32 0.32 0.36 0.38 0.37 0.37 0.32 0.30 0.30 0.27 0.29 0.30 0.32 0.34 0.36 0.35 0.47 0.66 0.72 0.88 0.97 0.99
0.29 0.26 0.10 0.07 0.06 0.03 0.03 0.02 0.01 0.01 0.01 0.01 0.00 0.01 0.08 0.21 0.26 0.20 0.18 0.18 0.17 0.24 0.38 0.49 0.56 0.68 0.84 0.88 0.87 0.92 0.97 0.97 0.89 0.86 0.92 1.04 1.17 1.27 1.32 1.34 1.35 1.43 1.40 1.23
0.07 0.08 0.08 0.06 0.03 0.02 0.01 0.01 0.01 0.00 0.00 0.02 0.10 0.26 0.29 0.18 0.10 0.07 0.07 0.12 0.16 0.20 0.33 0.44 0.56 0.82 1.01 1.17 1.34 1.53 1.65 1.77 1.76 1.70 1.61 1.42 1.26 1.15 1.12 1.12 1.11 1.15 1.13 1.04
0.00 0.00 0.01 0.02 0.02 0.01 0.00 0.01 0.01 0.01 0.05 0.17 0.25 0.16 0.07 0.04 0.06 0.09 0.10 0.10 0.10 0.17 0.24 0.28 0.41 0.72 0.80 0.89 0.99 1.07 1.07 1.01 0.89 0.85 0.83 0.78 0.75 0.69 0.66 0.63 0.60 0.57 0.54 0.52
0.02 0.03 0.02 0.03 0.02 0.02 0.02 0.03 0.05 0.09 0.11 0.10 0.09 0.07 0.06 0.06 0.07 0.15 0.26 0.34 0.39 0.54 0.66 0.71 0.97 1.01 0.93 0.82 0.69 0.69 0.66 0.65 0.61 0.56 0.54 0.50 0.46 0.40 0.36 0.33 0.31 0.28 0.28 0.20
0.16 0.18 0.19 0.18 0.14 0.09 0.12 0.15 0.15 0.14 0.17 0.18 0.19 0.20 0.23 0.28 0.38 0.52 0.66 0.68 0.68 0.80 0.96 1.02 0.91 0.80 0.72 0.64 0.53 0.46 0.38 0.34 0.29 0.25 0.23 0.22 0.20 0.19 0.19 0.18 0.15 0.14 0.13 0.11
0.21 0.21 0.25 0.24 0.24 0.21 0.20 0.19 0.20 0.23 0.28 0.31 0.34 0.50 0.61 0.77 0.85 0.99 1.04 0.92 0.87 0.77 0.93 0.72 0.55 0.40 0.34 0.28 0.20 0.17 0.16 0.14 0.12 0.12 0.12 0.12 0.12 0.13 0.14 0.17 0.19 0.19 0.18 0.15
0.29 0.31 0.28 0.28 0.26 0.24 0.26 0.35 0.37 0.49 0.73 0.74 0.82 0.94 1.01 1.17 1.08 0.96 0.79 0.70 0.68 0.62 0.51 0.38 0.27 0.20 0.16 0.14 0.10 0.09 0.10 0.09 0.09 0.10 0.10 0.11 0.12 0.11 0.11 0.12 0.16 0.20 0.22 0.22
0.46 0.47 0.52 0.56 0.68 0.80 0.87 0.98 0.81 0.91 1.13 1.01 0.82 0.88 0.82 0.85 0.73 0.61 0.44 0.39 0.48 0.34 0.26 0.21 0.16 0.13 0.09 0.07 0.06 0.07 0.07 0.07 0.07 0.08 0.11 0.13 0.16 0.17 0.18 0.20 0.21 0.21 0.22 0.23
0.93 0.87 0.96 0.92 0.75 0.90 1.00 0.93 0.76 0.75 0.74 0.70 0.65 0.61 0.49 0.51 0.44 0.36 0.33 0.28 0.30 0.19 0.13 0.10 0.07 0.05 0.04 0.03 0.04 0.05 0.06 0.09 0.12 0.14 0.17 0.18 0.23 0.26 0.29 0.30 0.31 0.31 0.34 0.35
0.93 0.81 0.76 0.70 0.61 0.64 0.63 0.56 0.55 0.44 0.43 0.41 0.37 0.34 0.27 0.27 0.22 0.15 0.17 0.16 0.09 0.07 0.05 0.05 0.03 0.01 0.02 0.06 0.09 0.10 0.13 0.15 0.16 0.19 0.26 0.32 0.34 0.32 0.27 0.23 0.20 0.19 0.18 0.17
0.57 0.50 0.48 0.46 0.30 0.18 0.22 0.29 0.20 0.17 0.15 0.15 0.14 0.13 0.10 0.08 0.10 0.07 0.06 0.05 0.03 0.02 0.02 0.04 0.03 0.03 0.05 0.09 0.10 0.12 0.17 0.21 0.25 0.27 0.24 0.19 0.19 0.17 0.16 0.13 0.09 0.09 0.09 0.08
0.38 0.35 0.30 0.22 0.15 0.19 0.17 0.15 0.09 0.09 0.08 0.08 0.07 0.05 0.04 0.04 0.06 0.07 0.04 0.03 0.02 0.04 0.06 0.04 0.05 0.06 0.09 0.11 0.14 0.16 0.19 0.19 0.19 0.19 0.17 0.16 0.14 0.12 0.10 0.09 0.08 0.08 0.07 0.06
0.20 0.19 0.20 0.18 0.20 0.18 0.15 0.11 0.13 0.15 0.09 0.08 0.09 0.09 0.08 0.05 0.05 0.05 0.05 0.03 0.03 0.03 0.09 0.12 0.11 0.12 0.15 0.18 0.19 0.19 0.19 0.16 0.14 0.13 0.11 0.09 0.08 0.08 0.06 0.05 0.04 0.03 0.03 0.03
0.21 0.19 0.16 0.17 0.17 0.13 0.11 0.10 0.10 0.09 0.09 0.09 0.11 0.11 0.09 0.07 0.05 0.03 0.03 0.04 0.05 0.08 0.12 0.14 0.15 0.16 0.16 0.15 0.14 0.12 0.10 0.09 0.08 0.06 0.05 0.04 0.04 0.04 0.03 0.02 0.02 0.02 0.02 0.03